TimeEST,TemperatureF,Dew PointF,Humidity,Sea Level PressureIn,VisibilityMPH,Wind Direction,Wind SpeedMPH,Gust SpeedMPH,PrecipitationIn,Events,Conditions,WindDirDegrees,DateUTC
12:40 AM,68.0,64.9,90,30.04,10.0,NNE,13.8,-,0.06,Rain,Light Rain,30,2014-01-30 05:40:00
12:53 AM,66.9,64.9,93,30.04,10.0,NNE,13.8,21.9,0.06,Rain,Light Rain,30,2014-01-30 05:53:00
1:53 AM,66.0,66.0,100,30.04,4.0,NNE,11.5,-,0.14,Rain,Heavy Rain,20,2014-01-30 06:53:00
2:53 AM,66.9,66.0,97,30.04,3.0,NE,9.2,-,0.14,Rain,Heavy Rain,40,2014-01-30 07:53:00
3:12 AM,66.9,66.9,100,30.03,4.0,NNE,11.5,-,0.09,Rain,Rain,30,2014-01-30 08:12:00
3:48 AM,-9999,-9999,N/A,30.01,10.0,NE,13.8,-,0.10,,Overcast,40,2014-01-30 08:48:00
3:53 AM,-9999,-9999,N/A,30.01,10.0,NE,12.7,-,0.10,,Mostly Cloudy,40,2014-01-30 08:53:00
4:39 AM,-9999,-9999,N/A,30.01,10.0,NNE,12.7,-,N/A,,Mostly Cloudy,30,2014-01-30 09:39:00
4:53 AM,-9999,-9999,N/A,30.01,10.0,NNE,10.4,-,N/A,,Mostly Cloudy,30,2014-01-30 09:53:00
5:53 AM,-9999,-9999,N/A,30.03,10.0,NNE,11.5,-,N/A,,Overcast,30,2014-01-30 10:53:00
6:24 AM,64.9,64.9,100,30.03,10.0,NE,11.5,-,N/A,,Overcast,40,2014-01-30 11:24:00
6:53 AM,66.0,66.0,100,30.03,10.0,NE,12.7,-,N/A,,Overcast,40,2014-01-30 11:53:00
7:53 AM,66.9,66.0,97,30.04,10.0,ENE,10.4,-,N/A,,Mostly Cloudy,60,2014-01-30 12:53:00
8:21 AM,68.0,66.0,93,30.05,10.0,NE,9.2,-,N/A,,Overcast,50,2014-01-30 13:21:00
8:32 AM,68.0,66.9,96,30.05,10.0,ENE,10.4,-,N/A,,Overcast,60,2014-01-30 13:32:00
8:53 AM,68.0,66.9,96,30.06,10.0,NE,8.1,-,N/A,,Scattered Clouds,40,2014-01-30 13:53:00
9:06 AM,68.0,66.9,96,30.06,10.0,NE,8.1,-,N/A,,Mostly Cloudy,40,2014-01-30 14:06:00
9:53 AM,68.0,66.9,96,30.09,10.0,North,6.9,-,N/A,,Overcast,360,2014-01-30 14:53:00
10:53 AM,66.9,64.9,93,30.10,10.0,North,8.1,-,0.00,Rain,Light Rain,10,2014-01-30 15:53:00
11:53 AM,66.9,66.9,100,30.09,4.0,NNE,5.8,-,0.11,Rain,Rain,20,2014-01-30 16:53:00
12:00 PM,66.9,66.9,100,30.07,7.0,NNE,8.1,-,0.00,Rain,Light Rain,20,2014-01-30 17:00:00
12:27 PM,68.0,68.0,100,30.06,8.0,NNE,8.1,-,0.04,Rain,Light Rain,20,2014-01-30 17:27:00
12:53 PM,68.0,68.0,100,30.06,10.0,North,9.2,-,0.05,Rain,Light Rain,360,2014-01-30 17:53:00
1:53 PM,69.1,69.1,100,30.02,10.0,NE,6.9,-,0.01,,Overcast,40,2014-01-30 18:53:00
2:23 PM,69.1,69.1,100,30.03,6.0,NNE,6.9,-,0.02,Rain,Rain,20,2014-01-30 19:23:00
2:43 PM,69.1,69.1,100,30.03,8.0,North,6.9,-,0.03,Rain,Light Rain,10,2014-01-30 19:43:00
2:53 PM,69.1,69.1,100,30.04,9.0,Variable,4.6,-,0.03,Rain,Light Rain,0,2014-01-30 19:53:00
3:13 PM,68.0,68.0,100,30.03,5.0,NNE,10.4,-,0.02,Rain,Light Rain,20,2014-01-30 20:13:00
3:21 PM,68.0,68.0,100,30.03,6.0,NNE,10.4,-,0.02,Rain,Light Rain,30,2014-01-30 20:21:00
3:35 PM,68.0,68.0,100,30.03,9.0,NE,11.5,-,0.03,Rain,Light Rain,40,2014-01-30 20:35:00
3:53 PM,68.0,68.0,100,30.02,7.0,NE,12.7,-,0.04,Rain,Light Rain,40,2014-01-30 20:53:00
4:22 PM,68.0,68.0,100,30.02,10.0,NNE,12.7,-,0.00,,Overcast,30,2014-01-30 21:22:00
4:53 PM,68.0,68.0,100,30.02,10.0,NE,12.7,-,0.00,,Mostly Cloudy,40,2014-01-30 21:53:00
5:09 PM,68.0,68.0,100,30.02,10.0,NNE,12.7,-,N/A,,Overcast,30,2014-01-30 22:09:00
5:11 PM,68.0,68.0,100,30.02,10.0,NNE,11.5,-,N/A,,Overcast,30,2014-01-30 22:11:00
5:18 PM,68.0,68.0,100,30.02,10.0,NNE,12.7,-,N/A,,Overcast,30,2014-01-30 22:18:00
5:33 PM,68.0,68.0,100,30.02,10.0,NE,13.8,-,N/A,,Overcast,40,2014-01-30 22:33:00
5:53 PM,68.0,68.0,100,30.02,10.0,NE,12.7,-,N/A,,Mostly Cloudy,40,2014-01-30 22:53:00
6:26 PM,68.0,68.0,100,30.03,10.0,NE,13.8,-,N/A,,Overcast,50,2014-01-30 23:26:00
6:34 PM,68.0,68.0,100,30.03,10.0,NE,13.8,-,N/A,,Overcast,40,2014-01-30 23:34:00
6:53 PM,68.0,68.0,100,30.03,10.0,NE,15.0,-,N/A,,Mostly Cloudy,40,2014-01-30 23:53:00
7:53 PM,69.1,66.9,93,30.03,10.0,NE,11.5,-,N/A,,Overcast,50,2014-01-31 00:53:00
8:12 PM,69.1,66.9,93,30.03,10.0,NE,12.7,-,N/A,,Overcast,50,2014-01-31 01:12:00
8:38 PM,70.0,68.0,93,30.04,10.0,NE,12.7,-,N/A,,Overcast,50,2014-01-31 01:38:00
8:53 PM,70.0,68.0,93,30.04,10.0,NE,10.4,-,0.00,Rain,Light Rain,50,2014-01-31 01:53:00
9:40 PM,70.0,68.0,93,30.05,10.0,ENE,9.2,-,0.02,Rain,Light Rain,60,2014-01-31 02:40:00
9:53 PM,70.0,69.1,97,30.05,9.0,NE,9.2,-,0.02,Rain,Light Rain,50,2014-01-31 02:53:00
10:53 PM,70.0,70.0,100,30.04,10.0,NE,10.4,-,0.00,,Overcast,40,2014-01-31 03:53:00
11:13 PM,70.0,70.0,100,30.04,10.0,NE,11.5,-,N/A,,Overcast,40,2014-01-31 04:13:00
11:53 PM,69.1,69.1,100,30.03,10.0,NE,11.5,-,0.00,Rain,Light Rain,50,2014-01-31 04:53:00